DELTA 1 R/B, 2436

Orbit data source: Space-Track

DELTA 1 R/B, 2436 is space debris in SSO originally from a launch on Sun, 02 Oct 1966 UTC launched from the Air Force Western Test Range (AFWTR). Debris objects in space refer to the collection of defunct objects orbiting the Earth. Examples of debris include non-operational satellites, rocket bodies, and fragments generated from explosions, collisions, or faulty payload assembly.

Loading next visibility...
Identifier
2436, 1966-087B
Orbit
SSO
Country
Flag of USUS
Related business
Manufacturer
ABL
Mission
Spacecraft
Bus & Motor
ALTAIR, Unknown motor
Mass
33 kg wet, 33 kg dry
Launch date (UTC)
1966-10-02 (59 years ago)
Launch vehicle
Unknown
Launch site
Air Force Western Test Range (AFWTR)
Object type
Payload
Rocket body
Debris
Shape & HBR
Cyl, 0.8 m
Radar Cross Section
0.687 m², Medium (>0.1 m² and < 1m²)

Expand to show TLE details & history
Last TLE update: 14 hours ago

TLE from 14 hours ago
0 DELTA 1 R/B
1 02436U 66087B   25261.11225460 -.00000009  00000-0  18918-3 0  9999
2 02436 101.0001 226.5419 0064709 212.9095 146.7946 12.57662804705902
Epoch: 2025-09-18T02:41Z
TLE epoch observation values (Epoch: 2025-09-18T02:41:38.797Z)
Latitude
0.00004°
Longitude
-171.14829°
Altitude
1,477.612 km
Speed
7.105 km/s
True Right ascension
15h 06m 10s
True Declination
0° 00' 00"
Sunlit
Object was in daylight at epoch
Visualization orbit readout
Latitude
Unknown
Longitude
Unknown
Altitude
Unknown
Speed
Unknown
Apparent Right ascension
Unknown
Apparent Declination
Unknown
Sunlit
N/A
Visualization observer readout
Local Sidereal Time
09:18:06
Azimuth
Unknown
Elevation
Unknown
Doppler factor
Unknown
Orbital elements
Apogee altitude
1,480.626 km
Perigee altitude
1,379.574 km
Semi-major axis
7,808.237 km
Eccentricity
0.00647
Inclination
101.0001°
RAAN
226.5419°
Arg. of periapsis
212.9095°
True anomaly
147.19795°
Mean anomaly
146.7946°
Eccentric anomaly
146.99655°
Mean motion
3.14567 °/min
Orbital period
114.44 mins
BSTAR
0.00018918
Loading maneuver chart data...
Computing Atmospheric mass density...
Loading historical data...
Loading historical data...
Loading historical data...
Loading historical data...
Loading historical data...
Loading historical data...
Loading historical data...
Other satellites on launch #87 in the year 1966 (1966-10-02 UTC)

Documentation

Showing up to 5 results
|